owner,sensor,date,latitude,longitude,vertical_datum,sea_water_temperature,qcFlag 
DISL,ioos:station:DISL:DISL:1,2009-03-02T16:30:00Z,30.2513,-88.0778,-1.72,8.26,2 
DISL,ioos:station:DISL:DISL:1,2009-03-02T17:00:00Z,30.2513,-88.0778,-1.72,8.61,2 
DISL,ioos:station:DISL:DISL:1,2009-03-02T17:30:00Z,30.2513,-88.0778,-1.72,8.89,2 
DISL,ioos:station:DISL:DISL:1,2009-03-02T18:00:00Z,30.2513,-88.0778,-1.72,9.42,2 
DISL,ioos:station:DISL:DISL:1,2009-03-02T18:30:00Z,30.2513,-88.0778,-1.72,9.85,2 
DISL,ioos:station:DISL:DISL:1,2009-03-02T19:00:00Z,30.2513,-88.0778,-1.72,10.39,2 
DISL,ioos:station:DISL:DISL:1,2009-03-02T19:30:00Z,30.2513,-88.0778,-1.72,10.96,2 
DISL,ioos:station:DISL:DISL:1,2009-03-02T20:00:00Z,30.2513,-88.0778,-1.72,11.27,2 
DISL,ioos:station:DISL:DISL:1,2009-03-02T20:30:00Z,30.2513,-88.0778,-1.72,11.5,2 
DISL,ioos:station:DISL:DISL:1,2009-03-02T21:00:00Z,30.2513,-88.0778,-1.72,11.74,2 
DISL,ioos:station:DISL:DISL:1,2009-03-02T21:30:00Z,30.2513,-88.0778,-1.72,11.9,2 
DISL,ioos:station:DISL:DISL:1,2009-03-02T22:00:00Z,30.2513,-88.0778,-1.72,12.01,2 
DISL,ioos:station:DISL:DISL:1,2009-03-02T22:30:00Z,30.2513,-88.0778,-1.72,11.98,2 
DISL,ioos:station:DISL:DISL:1,2009-03-02T23:00:00Z,30.2513,-88.0778,-1.72,12.02,2 
DISL,ioos:station:DISL:DISL:1,2009-03-02T23:30:00Z,30.2513,-88.0778,-1.72,12.01,2 
DISL,ioos:station:DISL:DISL:1,2009-03-03T00:00:00Z,30.2513,-88.0778,-1.72,12.01,2 
DISL,ioos:station:DISL:DISL:1,2009-03-03T00:30:00Z,30.2513,-88.0778,-1.72,13.25,2 
DISL,ioos:station:DISL:DISL:1,2009-03-03T01:00:00Z,30.2513,-88.0778,-1.72,12.98,2 
DISL,ioos:station:DISL:DISL:1,2009-03-03T01:30:00Z,30.2513,-88.0778,-1.72,12.78,2 
DISL,ioos:station:DISL:DISL:1,2009-03-03T02:00:00Z,30.2513,-88.0778,-1.72,12.62,2 
DISL,ioos:station:DISL:DISL:1,2009-03-03T02:30:00Z,30.2513,-88.0778,-1.72,12.47,2 
DISL,ioos:station:DISL:DISL:1,2009-03-03T03:00:00Z,30.2513,-88.0778,-1.72,12.33,2 
DISL,ioos:station:DISL:DISL:1,2009-03-03T03:30:00Z,30.2513,-88.0778,-1.72,12.19,2 
DISL,ioos:station:DISL:DISL:1,2009-03-03T04:00:00Z,30.2513,-88.0778,-1.72,12.06,2 
DISL,ioos:station:DISL:DISL:1,2009-03-03T04:30:00Z,30.2513,-88.0778,-1.72,11.92,2 
DISL,ioos:station:DISL:DISL:1,2009-03-03T05:00:00Z,30.2513,-88.0778,-1.72,11.78,2 
DISL,ioos:station:DISL:DISL:1,2009-03-03T05:30:00Z,30.2513,-88.0778,-1.72,11.69,2 
DISL,ioos:station:DISL:DISL:1,2009-03-03T06:00:00Z,30.2513,-88.0778,-1.72,11.63,2 
DISL,ioos:station:DISL:DISL:1,2009-03-03T06:30:00Z,30.2513,-88.0778,-1.72,11.52,2 
DISL,ioos:station:DISL:DISL:1,2009-03-03T07:00:00Z,30.2513,-88.0778,-1.72,11.4,2 
DISL,ioos:station:DISL:DISL:1,2009-03-03T07:30:00Z,30.2513,-88.0778,-1.72,11.36,2 
DISL,ioos:station:DISL:DISL:1,2009-03-03T08:00:00Z,30.2513,-88.0778,-1.72,11.44,2 
DISL,ioos:station:DISL:DISL:1,2009-03-03T08:30:00Z,30.2513,-88.0778,-1.72,11.56,2 
DISL,ioos:station:DISL:DISL:1,2009-03-03T09:00:00Z,30.2513,-88.0778,-1.72,11.36,2 
DISL,ioos:station:DISL:DISL:1,2009-03-03T09:30:00Z,30.2513,-88.0778,-1.72,11.01,2 
DISL,ioos:station:DISL:DISL:1,2009-03-03T10:00:00Z,30.2513,-88.0778,-1.72,11.29,2 
DISL,ioos:station:DISL:DISL:1,2009-03-03T10:30:00Z,30.2513,-88.0778,-1.72,11.27,2 
DISL,ioos:station:DISL:DISL:1,2009-03-03T11:00:00Z,30.2513,-88.0778,-1.72,11.27,2 
DISL,ioos:station:DISL:DISL:1,2009-03-03T11:30:00Z,30.2513,-88.0778,-1.72,11.1,2 
DISL,ioos:station:DISL:DISL:1,2009-03-03T12:00:00Z,30.2513,-88.0778,-1.72,11.13,2 
DISL,ioos:station:DISL:DISL:1,2009-03-03T12:30:00Z,30.2513,-88.0778,-1.72,11.26,2 
DISL,ioos:station:DISL:DISL:1,2009-03-03T13:00:00Z,30.2513,-88.0778,-1.72,11.22,2 
DISL,ioos:station:DISL:DISL:1,2009-03-03T13:30:00Z,30.2513,-88.0778,-1.72,11.19,2 
DISL,ioos:station:DISL:DISL:1,2009-03-03T14:00:00Z,30.2513,-88.0778,-1.72,11.4,2 
DISL,ioos:station:DISL:DISL:1,2009-03-03T14:30:00Z,30.2513,-88.0778,-1.72,11.7,2 
DISL,ioos:station:DISL:DISL:1,2009-03-03T15:00:00Z,30.2513,-88.0778,-1.72,11.98,2 
DISL,ioos:station:DISL:DISL:1,2009-03-03T15:30:00Z,30.2513,-88.0778,-1.72,11.8,2 
DISL,ioos:station:DISL:DISL:1,2009-03-03T16:00:00Z,30.2513,-88.0778,-1.72,11.7,2 
DISL,ioos:station:DISL:DISL:1,2009-03-03T16:30:00Z,30.2513,-88.0778,-1.72,11.65,2 
DISL,ioos:station:DISL:DISL:1,2009-03-03T17:00:00Z,30.2513,-88.0778,-1.72,11.6,2 
DISL,ioos:station:DISL:DISL:1,2009-03-03T17:30:00Z,30.2513,-88.0778,-1.72,11.51,2 
DISL,ioos:station:DISL:DISL:1,2009-03-03T18:00:00Z,30.2513,-88.0778,-1.72,12.04,2 
DISL,ioos:station:DISL:DISL:1,2009-03-03T18:30:00Z,30.2513,-88.0778,-1.72,11.19,2 
DISL,ioos:station:DISL:DISL:1,2009-03-03T19:00:00Z,30.2513,-88.0778,-1.72,11.34,2 
DISL,ioos:station:DISL:DISL:1,2009-03-03T19:30:00Z,30.2513,-88.0778,-1.72,12.07,2 
DISL,ioos:station:DISL:DISL:1,2009-03-03T20:00:00Z,30.2513,-88.0778,-1.72,12.8,2 
DISL,ioos:station:DISL:DISL:1,2009-03-03T20:30:00Z,30.2513,-88.0778,-1.72,14.38,2 
DISL,ioos:station:DISL:DISL:1,2009-03-03T21:00:00Z,30.2513,-88.0778,-1.72,13.28,2 
DISL,ioos:station:DISL:DISL:1,2009-03-03T21:30:00Z,30.2513,-88.0778,-1.72,13.67,2 
DISL,ioos:station:DISL:DISL:1,2009-03-03T22:00:00Z,30.2513,-88.0778,-1.72,12.38,2 
DISL,ioos:station:DISL:DISL:1,2009-03-03T22:30:00Z,30.2513,-88.0778,-1.72,11.49,2 
DISL,ioos:station:DISL:DISL:1,2009-03-03T23:00:00Z,30.2513,-88.0778,-1.72,11.41,2 
DISL,ioos:station:DISL:DISL:1,2009-03-03T23:30:00Z,30.2513,-88.0778,-1.72,11.42,2 
DISL,ioos:station:DISL:DISL:1,2009-03-04T00:00:00Z,30.2513,-88.0778,-1.72,11.47,2 
DISL,ioos:station:DISL:DISL:1,2009-03-04T00:30:00Z,30.2513,-88.0778,-1.72,11.86,2 
DISL,ioos:station:DISL:DISL:1,2009-03-04T01:00:00Z,30.2513,-88.0778,-1.72,12.12,2 
DISL,ioos:station:DISL:DISL:1,2009-03-04T01:30:00Z,30.2513,-88.0778,-1.72,11.87,2 
DISL,ioos:station:DISL:DISL:1,2009-03-04T02:00:00Z,30.2513,-88.0778,-1.72,11.72,2 
DISL,ioos:station:DISL:DISL:1,2009-03-04T02:30:00Z,30.2513,-88.0778,-1.72,11.59,2 
DISL,ioos:station:DISL:DISL:1,2009-03-04T03:00:00Z,30.2513,-88.0778,-1.72,11.43,2 
DISL,ioos:station:DISL:DISL:1,2009-03-04T03:30:00Z,30.2513,-88.0778,-1.72,11.24,2 
DISL,ioos:station:DISL:DISL:1,2009-03-04T04:00:00Z,30.2513,-88.0778,-1.72,11.19,2 
DISL,ioos:station:DISL:DISL:1,2009-03-04T04:30:00Z,30.2513,-88.0778,-1.72,11.15,2 
DISL,ioos:station:DISL:DISL:1,2009-03-04T05:00:00Z,30.2513,-88.0778,-1.72,11.15,2 
DISL,ioos:station:DISL:DISL:1,2009-03-04T05:30:00Z,30.2513,-88.0778,-1.72,11.3,2 
DISL,ioos:station:DISL:DISL:1,2009-03-04T06:00:00Z,30.2513,-88.0778,-1.72,11.32,2 
DISL,ioos:station:DISL:DISL:1,2009-03-04T06:30:00Z,30.2513,-88.0778,-1.72,11.24,2 
DISL,ioos:station:DISL:DISL:1,2009-03-04T07:00:00Z,30.2513,-88.0778,-1.72,11.21,2 
DISL,ioos:station:DISL:DISL:1,2009-03-04T07:30:00Z,30.2513,-88.0778,-1.72,11.18,2 
DISL,ioos:station:DISL:DISL:1,2009-03-04T08:00:00Z,30.2513,-88.0778,-1.72,11.22,2 
DISL,ioos:station:DISL:DISL:1,2009-03-04T08:30:00Z,30.2513,-88.0778,-1.72,11.24,2 
DISL,ioos:station:DISL:DISL:1,2009-03-04T09:00:00Z,30.2513,-88.0778,-1.72,11.21,2 
DISL,ioos:station:DISL:DISL:1,2009-03-04T09:30:00Z,30.2513,-88.0778,-1.72,11.2,2 
DISL,ioos:station:DISL:DISL:1,2009-03-04T10:00:00Z,30.2513,-88.0778,-1.72,11.17,2 
DISL,ioos:station:DISL:DISL:1,2009-03-04T10:30:00Z,30.2513,-88.0778,-1.72,11.14,2 
DISL,ioos:station:DISL:DISL:1,2009-03-04T11:00:00Z,30.2513,-88.0778,-1.72,11.1,2 
DISL,ioos:station:DISL:DISL:1,2009-03-04T11:30:00Z,30.2513,-88.0778,-1.72,11.09,2 
DISL,ioos:station:DISL:DISL:1,2009-03-04T12:00:00Z,30.2513,-88.0778,-1.72,11.1,2 
DISL,ioos:station:DISL:DISL:1,2009-03-04T12:30:00Z,30.2513,-88.0778,-1.72,11.28,2 
DISL,ioos:station:DISL:DISL:1,2009-03-04T13:00:00Z,30.2513,-88.0778,-1.72,11.75,2 
DISL,ioos:station:DISL:DISL:1,2009-03-04T13:30:00Z,30.2513,-88.0778,-1.72,11.97,2 
DISL,ioos:station:DISL:DISL:1,2009-03-04T14:00:00Z,30.2513,-88.0778,-1.72,11.81,2 
DISL,ioos:station:DISL:DISL:1,2009-03-04T14:30:00Z,30.2513,-88.0778,-1.72,11.74,2 
DISL,ioos:station:DISL:DISL:1,2009-03-04T15:00:00Z,30.2513,-88.0778,-1.72,11.59,2 
DISL,ioos:station:DISL:DISL:1,2009-03-04T15:30:00Z,30.2513,-88.0778,-1.72,11.58,2 
DISL,ioos:station:DISL:DISL:1,2009-03-04T16:00:00Z,30.2513,-88.0778,-1.72,11.66,2 
DISL,ioos:station:DISL:DISL:1,2009-03-04T16:30:00Z,30.2513,-88.0778,-1.72,12.27,2 
DISL,ioos:station:DISL:DISL:1,2009-03-04T17:00:00Z,30.2513,-88.0778,-1.72,13.88,2 
DISL,ioos:station:DISL:DISL:1,2009-03-04T17:30:00Z,30.2513,-88.0778,-1.72,14.23,2 
DISL,ioos:station:DISL:DISL:1,2009-03-04T18:00:00Z,30.2513,-88.0778,-1.72,14.44,2 
DISL,ioos:station:DISL:DISL:1,2009-03-04T18:30:00Z,30.2513,-88.0778,-1.72,14.4,2 
DISL,ioos:station:DISL:DISL:1,2009-03-04T19:00:00Z,30.2513,-88.0778,-1.72,14.58,2 
DISL,ioos:station:DISL:DISL:1,2009-03-04T19:30:00Z,30.2513,-88.0778,-1.72,14.87,2 
DISL,ioos:station:DISL:DISL:1,2009-03-04T20:00:00Z,30.2513,-88.0778,-1.72,15.09,2 
DISL,ioos:station:DISL:DISL:1,2009-03-04T20:30:00Z,30.2513,-88.0778,-1.72,15.24,2 
DISL,ioos:station:DISL:DISL:1,2009-03-04T21:00:00Z,30.2513,-88.0778,-1.72,15.42,2 
DISL,ioos:station:DISL:DISL:1,2009-03-04T21:30:00Z,30.2513,-88.0778,-1.72,15.29,2 
DISL,ioos:station:DISL:DISL:1,2009-03-04T22:00:00Z,30.2513,-88.0778,-1.72,14.86,2 
DISL,ioos:station:DISL:DISL:1,2009-03-04T22:30:00Z,30.2513,-88.0778,-1.72,14.58,2 
DISL,ioos:station:DISL:DISL:1,2009-03-04T23:00:00Z,30.2513,-88.0778,-1.72,14.05,2 
DISL,ioos:station:DISL:DISL:1,2009-03-04T23:30:00Z,30.2513,-88.0778,-1.72,13.82,2 
DISL,ioos:station:DISL:DISL:1,2009-03-05T00:00:00Z,30.2513,-88.0778,-1.72,14.14,2 
DISL,ioos:station:DISL:DISL:1,2009-03-05T00:30:00Z,30.2513,-88.0778,-1.72,13.26,2 
DISL,ioos:station:DISL:DISL:1,2009-03-05T01:00:00Z,30.2513,-88.0778,-1.72,12.73,2 
DISL,ioos:station:DISL:DISL:1,2009-03-05T01:30:00Z,30.2513,-88.0778,-1.72,12.68,2 
DISL,ioos:station:DISL:DISL:1,2009-03-05T02:00:00Z,30.2513,-88.0778,-1.72,12.52,2 
DISL,ioos:station:DISL:DISL:1,2009-03-05T02:30:00Z,30.2513,-88.0778,-1.72,12.43,2 
DISL,ioos:station:DISL:DISL:1,2009-03-05T03:00:00Z,30.2513,-88.0778,-1.72,12.38,2 
DISL,ioos:station:DISL:DISL:1,2009-03-05T03:30:00Z,30.2513,-88.0778,-1.72,12.38,2 
DISL,ioos:station:DISL:DISL:1,2009-03-05T04:00:00Z,30.2513,-88.0778,-1.72,12.41,2 
DISL,ioos:station:DISL:DISL:1,2009-03-05T04:30:00Z,30.2513,-88.0778,-1.72,12.46,2 
DISL,ioos:station:DISL:DISL:1,2009-03-05T05:00:00Z,30.2513,-88.0778,-1.72,12.61,2 
DISL,ioos:station:DISL:DISL:1,2009-03-05T05:30:00Z,30.2513,-88.0778,-1.72,12.65,2 
DISL,ioos:station:DISL:DISL:1,2009-03-05T06:00:00Z,30.2513,-88.0778,-1.72,12.72,2 
DISL,ioos:station:DISL:DISL:1,2009-03-05T06:30:00Z,30.2513,-88.0778,-1.72,12.54,2 
DISL,ioos:station:DISL:DISL:1,2009-03-05T07:00:00Z,30.2513,-88.0778,-1.72,12.26,2 
DISL,ioos:station:DISL:DISL:1,2009-03-05T07:30:00Z,30.2513,-88.0778,-1.72,12.3,2 
DISL,ioos:station:DISL:DISL:1,2009-03-05T08:00:00Z,30.2513,-88.0778,-1.72,12.35,2 
DISL,ioos:station:DISL:DISL:1,2009-03-05T08:30:00Z,30.2513,-88.0778,-1.72,12.33,2 
DISL,ioos:station:DISL:DISL:1,2009-03-05T09:00:00Z,30.2513,-88.0778,-1.72,12.26,2 
DISL,ioos:station:DISL:DISL:1,2009-03-05T09:30:00Z,30.2513,-88.0778,-1.72,12.25,2 
DISL,ioos:station:DISL:DISL:1,2009-03-05T10:00:00Z,30.2513,-88.0778,-1.72,12.2,2 
DISL,ioos:station:DISL:DISL:1,2009-03-05T10:30:00Z,30.2513,-88.0778,-1.72,12.21,2 
DISL,ioos:station:DISL:DISL:1,2009-03-05T11:00:00Z,30.2513,-88.0778,-1.72,12.29,2 
DISL,ioos:station:DISL:DISL:1,2009-03-05T11:30:00Z,30.2513,-88.0778,-1.72,12.5,2 
DISL,ioos:station:DISL:DISL:1,2009-03-05T12:00:00Z,30.2513,-88.0778,-1.72,12.46,2 
DISL,ioos:station:DISL:DISL:1,2009-03-05T12:30:00Z,30.2513,-88.0778,-1.72,12.42,2 
DISL,ioos:station:DISL:DISL:1,2009-03-05T13:00:00Z,30.2513,-88.0778,-1.72,12.53,2 
DISL,ioos:station:DISL:DISL:1,2009-03-05T13:30:00Z,30.2513,-88.0778,-1.72,12.56,2 
DISL,ioos:station:DISL:DISL:1,2009-03-05T14:00:00Z,30.2513,-88.0778,-1.72,12.59,2 
DISL,ioos:station:DISL:DISL:1,2009-03-05T14:30:00Z,30.2513,-88.0778,-1.72,12.63,2 
DISL,ioos:station:DISL:DISL:1,2009-03-05T15:00:00Z,30.2513,-88.0778,-1.72,12.73,2 
DISL,ioos:station:DISL:DISL:1,2009-03-05T15:30:00Z,30.2513,-88.0778,-1.72,12.9,2 
DISL,ioos:station:DISL:DISL:1,2009-03-05T16:00:00Z,30.2513,-88.0778,-1.72,13.03,2 
DISL,ioos:station:DISL:DISL:1,2009-03-05T16:30:00Z,30.2513,-88.0778,-1.72,13.16,2 
DISL,ioos:station:DISL:DISL:1,2009-03-05T17:00:00Z,30.2513,-88.0778,-1.72,13.41,2 
DISL,ioos:station:DISL:DISL:1,2009-03-05T17:30:00Z,30.2513,-88.0778,-1.72,13.85,2 
DISL,ioos:station:DISL:DISL:1,2009-03-05T18:00:00Z,30.2513,-88.0778,-1.72,14.07,2 
DISL,ioos:station:DISL:DISL:1,2009-03-05T18:30:00Z,30.2513,-88.0778,-1.72,14.17,2 
DISL,ioos:station:DISL:DISL:1,2009-03-05T19:00:00Z,30.2513,-88.0778,-1.72,14.38,2 
DISL,ioos:station:DISL:DISL:1,2009-03-05T19:30:00Z,30.2513,-88.0778,-1.72,14.71,2 
DISL,ioos:station:DISL:DISL:1,2009-03-05T20:00:00Z,30.2513,-88.0778,-1.72,14.94,2 
DISL,ioos:station:DISL:DISL:1,2009-03-05T20:30:00Z,30.2513,-88.0778,-1.72,15.38,2 
DISL,ioos:station:DISL:DISL:1,2009-03-05T21:00:00Z,30.2513,-88.0778,-1.72,15.51,2 
DISL,ioos:station:DISL:DISL:1,2009-03-05T21:30:00Z,30.2513,-88.0778,-1.72,15.64,2 
DISL,ioos:station:DISL:DISL:1,2009-03-05T22:00:00Z,30.2513,-88.0778,-1.72,15.7,2 
DISL,ioos:station:DISL:DISL:1,2009-03-05T22:30:00Z,30.2513,-88.0778,-1.72,15.64,2 
DISL,ioos:station:DISL:DISL:1,2009-03-05T23:00:00Z,30.2513,-88.0778,-1.72,15.35,2 
DISL,ioos:station:DISL:DISL:1,2009-03-05T23:30:00Z,30.2513,-88.0778,-1.72,15.31,2 
DISL,ioos:station:DISL:DISL:1,2009-03-06T00:00:00Z,30.2513,-88.0778,-1.72,15.29,2 
DISL,ioos:station:DISL:DISL:1,2009-03-06T00:30:00Z,30.2513,-88.0778,-1.72,15.34,2 
DISL,ioos:station:DISL:DISL:1,2009-03-06T01:00:00Z,30.2513,-88.0778,-1.72,15.41,2 
DISL,ioos:station:DISL:DISL:1,2009-03-06T01:30:00Z,30.2513,-88.0778,-1.72,15.31,2 
DISL,ioos:station:DISL:DISL:1,2009-03-06T02:00:00Z,30.2513,-88.0778,-1.72,14.68,2 
DISL,ioos:station:DISL:DISL:1,2009-03-06T02:30:00Z,30.2513,-88.0778,-1.72,14.56,2 
DISL,ioos:station:DISL:DISL:1,2009-03-06T03:00:00Z,30.2513,-88.0778,-1.72,14.27,2 
DISL,ioos:station:DISL:DISL:1,2009-03-06T03:30:00Z,30.2513,-88.0778,-1.72,13.92,2 
DISL,ioos:station:DISL:DISL:1,2009-03-06T04:00:00Z,30.2513,-88.0778,-1.72,13.87,2 
DISL,ioos:station:DISL:DISL:1,2009-03-06T04:30:00Z,30.2513,-88.0778,-1.72,13.83,2 
DISL,ioos:station:DISL:DISL:1,2009-03-06T05:00:00Z,30.2513,-88.0778,-1.72,13.75,2 
DISL,ioos:station:DISL:DISL:1,2009-03-06T05:30:00Z,30.2513,-88.0778,-1.72,13.58,2 
DISL,ioos:station:DISL:DISL:1,2009-03-06T06:00:00Z,30.2513,-88.0778,-1.72,13.56,2 
DISL,ioos:station:DISL:DISL:1,2009-03-06T06:30:00Z,30.2513,-88.0778,-1.72,13.54,2 
DISL,ioos:station:DISL:DISL:1,2009-03-06T07:00:00Z,30.2513,-88.0778,-1.72,13.56,2 
DISL,ioos:station:DISL:DISL:1,2009-03-06T07:30:00Z,30.2513,-88.0778,-1.72,13.55,2 
DISL,ioos:station:DISL:DISL:1,2009-03-06T08:00:00Z,30.2513,-88.0778,-1.72,13.57,2 
DISL,ioos:station:DISL:DISL:1,2009-03-06T08:30:00Z,30.2513,-88.0778,-1.72,13.57,2 
DISL,ioos:station:DISL:DISL:1,2009-03-06T09:00:00Z,30.2513,-88.0778,-1.72,13.59,2 
DISL,ioos:station:DISL:DISL:1,2009-03-06T09:30:00Z,30.2513,-88.0778,-1.72,13.6,2 
DISL,ioos:station:DISL:DISL:1,2009-03-06T10:00:00Z,30.2513,-88.0778,-1.72,13.57,2 
DISL,ioos:station:DISL:DISL:1,2009-03-06T10:30:00Z,30.2513,-88.0778,-1.72,13.52,2 
DISL,ioos:station:DISL:DISL:1,2009-03-06T11:00:00Z,30.2513,-88.0778,-1.72,13.54,2 
DISL,ioos:station:DISL:DISL:1,2009-03-06T11:30:00Z,30.2513,-88.0778,-1.72,13.51,2 
DISL,ioos:station:DISL:DISL:1,2009-03-06T12:00:00Z,30.2513,-88.0778,-1.72,13.58,2 
DISL,ioos:station:DISL:DISL:1,2009-03-06T12:30:00Z,30.2513,-88.0778,-1.72,13.66,2 
DISL,ioos:station:DISL:DISL:1,2009-03-06T13:00:00Z,30.2513,-88.0778,-1.72,13.68,2 
DISL,ioos:station:DISL:DISL:1,2009-03-06T13:30:00Z,30.2513,-88.0778,-1.72,13.71,2 
DISL,ioos:station:DISL:DISL:1,2009-03-06T14:00:00Z,30.2513,-88.0778,-1.72,13.72,2 
DISL,ioos:station:DISL:DISL:1,2009-03-06T14:30:00Z,30.2513,-88.0778,-1.72,13.76,2 
DISL,ioos:station:DISL:DISL:1,2009-03-06T15:00:00Z,30.2513,-88.0778,-1.72,13.75,2 
DISL,ioos:station:DISL:DISL:1,2009-03-06T15:30:00Z,30.2513,-88.0778,-1.72,13.94,2 
DISL,ioos:station:DISL:DISL:1,2009-03-06T16:00:00Z,30.2513,-88.0778,-1.72,13.96,2 
DISL,ioos:station:DISL:DISL:1,2009-03-06T16:30:00Z,30.2513,-88.0778,-1.72,14.14,2 
DISL,ioos:station:DISL:DISL:1,2009-03-06T17:00:00Z,30.2513,-88.0778,-1.72,14.35,2 
DISL,ioos:station:DISL:DISL:1,2009-03-06T17:30:00Z,30.2513,-88.0778,-1.72,14.47,2 
DISL,ioos:station:DISL:DISL:1,2009-03-06T18:00:00Z,30.2513,-88.0778,-1.72,14.83,2 
DISL,ioos:station:DISL:DISL:1,2009-03-06T18:30:00Z,30.2513,-88.0778,-1.72,15.09,2 
DISL,ioos:station:DISL:DISL:1,2009-03-06T19:00:00Z,30.2513,-88.0778,-1.72,15.1,2 
DISL,ioos:station:DISL:DISL:1,2009-03-06T19:30:00Z,30.2513,-88.0778,-1.72,15.18,2 
DISL,ioos:station:DISL:DISL:1,2009-03-06T20:00:00Z,30.2513,-88.0778,-1.72,15.25,2 
DISL,ioos:station:DISL:DISL:1,2009-03-06T20:30:00Z,30.2513,-88.0778,-1.72,15.39,2 
DISL,ioos:station:DISL:DISL:1,2009-03-06T21:00:00Z,30.2513,-88.0778,-1.72,15.6,2 
DISL,ioos:station:DISL:DISL:1,2009-03-06T21:30:00Z,30.2513,-88.0778,-1.72,15.9,2 
DISL,ioos:station:DISL:DISL:1,2009-03-06T22:00:00Z,30.2513,-88.0778,-1.72,15.77,2 
DISL,ioos:station:DISL:DISL:1,2009-03-06T22:30:00Z,30.2513,-88.0778,-1.72,15.85,2 
DISL,ioos:station:DISL:DISL:1,2009-03-06T23:00:00Z,30.2513,-88.0778,-1.72,15.94,2 
DISL,ioos:station:DISL:DISL:1,2009-03-06T23:30:00Z,30.2513,-88.0778,-1.72,16.16,2 
DISL,ioos:station:DISL:DISL:1,2009-03-07T00:00:00Z,30.2513,-88.0778,-1.72,16.38,2 
DISL,ioos:station:DISL:DISL:1,2009-03-07T00:30:00Z,30.2513,-88.0778,-1.72,16.55,2 
DISL,ioos:station:DISL:DISL:1,2009-03-07T01:00:00Z,30.2513,-88.0778,-1.72,16.58,2 
DISL,ioos:station:DISL:DISL:1,2009-03-07T01:30:00Z,30.2513,-88.0778,-1.72,16.49,2 
DISL,ioos:station:DISL:DISL:1,2009-03-07T02:00:00Z,30.2513,-88.0778,-1.72,14.86,2 
DISL,ioos:station:DISL:DISL:1,2009-03-07T02:30:00Z,30.2513,-88.0778,-1.72,14.57,2 
DISL,ioos:station:DISL:DISL:1,2009-03-07T03:00:00Z,30.2513,-88.0778,-1.72,14.8,2 
DISL,ioos:station:DISL:DISL:1,2009-03-07T03:30:00Z,30.2513,-88.0778,-1.72,14.93,2 
DISL,ioos:station:DISL:DISL:1,2009-03-07T04:00:00Z,30.2513,-88.0778,-1.72,14.88,2 
DISL,ioos:station:DISL:DISL:1,2009-03-07T04:30:00Z,30.2513,-88.0778,-1.72,14.66,2 
DISL,ioos:station:DISL:DISL:1,2009-03-07T05:00:00Z,30.2513,-88.0778,-1.72,14.69,2 
DISL,ioos:station:DISL:DISL:1,2009-03-07T05:30:00Z,30.2513,-88.0778,-1.72,14.76,2 
DISL,ioos:station:DISL:DISL:1,2009-03-07T06:00:00Z,30.2513,-88.0778,-1.72,14.75,2 
DISL,ioos:station:DISL:DISL:1,2009-03-07T06:30:00Z,30.2513,-88.0778,-1.72,14.79,2 
DISL,ioos:station:DISL:DISL:1,2009-03-07T07:00:00Z,30.2513,-88.0778,-1.72,14.8,2 
DISL,ioos:station:DISL:DISL:1,2009-03-07T07:30:00Z,30.2513,-88.0778,-1.72,14.78,2 
DISL,ioos:station:DISL:DISL:1,2009-03-07T08:00:00Z,30.2513,-88.0778,-1.72,14.79,2 
DISL,ioos:station:DISL:DISL:1,2009-03-07T08:30:00Z,30.2513,-88.0778,-1.72,14.82,2 
DISL,ioos:station:DISL:DISL:1,2009-03-07T09:00:00Z,30.2513,-88.0778,-1.72,14.74,2 
DISL,ioos:station:DISL:DISL:1,2009-03-07T09:30:00Z,30.2513,-88.0778,-1.72,14.65,2 
DISL,ioos:station:DISL:DISL:1,2009-03-07T10:00:00Z,30.2513,-88.0778,-1.72,14.64,2 
DISL,ioos:station:DISL:DISL:1,2009-03-07T10:30:00Z,30.2513,-88.0778,-1.72,14.64,2 
DISL,ioos:station:DISL:DISL:1,2009-03-07T11:00:00Z,30.2513,-88.0778,-1.72,14.64,2 
DISL,ioos:station:DISL:DISL:1,2009-03-07T11:30:00Z,30.2513,-88.0778,-1.72,14.48,2 
DISL,ioos:station:DISL:DISL:1,2009-03-07T12:00:00Z,30.2513,-88.0778,-1.72,14.36,2 
DISL,ioos:station:DISL:DISL:1,2009-03-07T12:30:00Z,30.2513,-88.0778,-1.72,14.31,2 
DISL,ioos:station:DISL:DISL:1,2009-03-07T13:00:00Z,30.2513,-88.0778,-1.72,14.2,2 
DISL,ioos:station:DISL:DISL:1,2009-03-07T13:30:00Z,30.2513,-88.0778,-1.72,13.75,2 
DISL,ioos:station:DISL:DISL:1,2009-03-07T14:00:00Z,30.2513,-88.0778,-1.72,14.19,2 
DISL,ioos:station:DISL:DISL:1,2009-03-07T14:30:00Z,30.2513,-88.0778,-1.72,14.27,2 
DISL,ioos:station:DISL:DISL:1,2009-03-07T15:00:00Z,30.2513,-88.0778,-1.72,14.31,2 
DISL,ioos:station:DISL:DISL:1,2009-03-07T15:30:00Z,30.2513,-88.0778,-1.72,14.85,2 
DISL,ioos:station:DISL:DISL:1,2009-03-07T16:00:00Z,30.2513,-88.0778,-1.72,14.88,2 
DISL,ioos:station:DISL:DISL:1,2009-03-07T16:30:00Z,30.2513,-88.0778,-1.72,15.01,2 
DISL,ioos:station:DISL:DISL:1,2009-03-07T17:00:00Z,30.2513,-88.0778,-1.72,15.07,2 
DISL,ioos:station:DISL:DISL:1,2009-03-07T17:30:00Z,30.2513,-88.0778,-1.72,15.07,2 
DISL,ioos:station:DISL:DISL:1,2009-03-07T18:00:00Z,30.2513,-88.0778,-1.72,15.24,2 
DISL,ioos:station:DISL:DISL:1,2009-03-07T18:30:00Z,30.2513,-88.0778,-1.72,15.28,2 
DISL,ioos:station:DISL:DISL:1,2009-03-07T19:00:00Z,30.2513,-88.0778,-1.72,15.53,2 
DISL,ioos:station:DISL:DISL:1,2009-03-07T19:30:00Z,30.2513,-88.0778,-1.72,15.66,2 
DISL,ioos:station:DISL:DISL:1,2009-03-07T20:00:00Z,30.2513,-88.0778,-1.72,15.64,2 
DISL,ioos:station:DISL:DISL:1,2009-03-07T20:30:00Z,30.2513,-88.0778,-1.72,15.93,2 
DISL,ioos:station:DISL:DISL:1,2009-03-07T21:00:00Z,30.2513,-88.0778,-1.72,16.11,2 
DISL,ioos:station:DISL:DISL:1,2009-03-07T21:30:00Z,30.2513,-88.0778,-1.72,16.2,2 
DISL,ioos:station:DISL:DISL:1,2009-03-07T22:00:00Z,30.2513,-88.0778,-1.72,16.32,2 
DISL,ioos:station:DISL:DISL:1,2009-03-07T22:30:00Z,30.2513,-88.0778,-1.72,16.35,2 
DISL,ioos:station:DISL:DISL:1,2009-03-07T23:00:00Z,30.2513,-88.0778,-1.72,16.4,2 
DISL,ioos:station:DISL:DISL:1,2009-03-07T23:30:00Z,30.2513,-88.0778,-1.72,16.4,2 
DISL,ioos:station:DISL:DISL:1,2009-03-08T00:00:00Z,30.2513,-88.0778,-1.72,16.4,2 
DISL,ioos:station:DISL:DISL:1,2009-03-08T00:30:00Z,30.2513,-88.0778,-1.72,16.41,2 
DISL,ioos:station:DISL:DISL:1,2009-03-08T01:00:00Z,30.2513,-88.0778,-1.72,16.83,2 
DISL,ioos:station:DISL:DISL:1,2009-03-08T01:30:00Z,30.2513,-88.0778,-1.72,17.16,2 
DISL,ioos:station:DISL:DISL:1,2009-03-08T02:00:00Z,30.2513,-88.0778,-1.72,17.2,2 
DISL,ioos:station:DISL:DISL:1,2009-03-08T02:30:00Z,30.2513,-88.0778,-1.72,17.15,2 
DISL,ioos:station:DISL:DISL:1,2009-03-08T03:00:00Z,30.2513,-88.0778,-1.72,17.28,2 
DISL,ioos:station:DISL:DISL:1,2009-03-08T03:30:00Z,30.2513,-88.0778,-1.72,17.42,2 
DISL,ioos:station:DISL:DISL:1,2009-03-08T04:00:00Z,30.2513,-88.0778,-1.72,17.55,2 
DISL,ioos:station:DISL:DISL:1,2009-03-08T04:30:00Z,30.2513,-88.0778,-1.72,17.6,2 
DISL,ioos:station:DISL:DISL:1,2009-03-08T05:00:00Z,30.2513,-88.0778,-1.72,17.7,2 
DISL,ioos:station:DISL:DISL:1,2009-03-08T05:30:00Z,30.2513,-88.0778,-1.72,15.02,2 
DISL,ioos:station:DISL:DISL:1,2009-03-08T06:00:00Z,30.2513,-88.0778,-1.72,15.11,2 
DISL,ioos:station:DISL:DISL:1,2009-03-08T06:30:00Z,30.2513,-88.0778,-1.72,15.2,2 
DISL,ioos:station:DISL:DISL:1,2009-03-08T07:00:00Z,30.2513,-88.0778,-1.72,15.38,2 
DISL,ioos:station:DISL:DISL:1,2009-03-08T07:30:00Z,30.2513,-88.0778,-1.72,15.48,2 
DISL,ioos:station:DISL:DISL:1,2009-03-08T08:00:00Z,30.2513,-88.0778,-1.72,15.64,2 
DISL,ioos:station:DISL:DISL:1,2009-03-08T08:30:00Z,30.2513,-88.0778,-1.72,15.78,2 
DISL,ioos:station:DISL:DISL:1,2009-03-08T09:00:00Z,30.2513,-88.0778,-1.72,16.06,2 
DISL,ioos:station:DISL:DISL:1,2009-03-08T09:30:00Z,30.2513,-88.0778,-1.72,16.01,2 
DISL,ioos:station:DISL:DISL:1,2009-03-08T10:00:00Z,30.2513,-88.0778,-1.72,15.93,2 
DISL,ioos:station:DISL:DISL:1,2009-03-08T10:30:00Z,30.2513,-88.0778,-1.72,15.94,2 
DISL,ioos:station:DISL:DISL:1,2009-03-08T11:00:00Z,30.2513,-88.0778,-1.72,15.95,2 
DISL,ioos:station:DISL:DISL:1,2009-03-08T11:30:00Z,30.2513,-88.0778,-1.72,15.92,2 
DISL,ioos:station:DISL:DISL:1,2009-03-08T12:00:00Z,30.2513,-88.0778,-1.72,15.88,2 
DISL,ioos:station:DISL:DISL:1,2009-03-08T12:30:00Z,30.2513,-88.0778,-1.72,15.7,2 
DISL,ioos:station:DISL:DISL:1,2009-03-08T13:00:00Z,30.2513,-88.0778,-1.72,15.62,2 
DISL,ioos:station:DISL:DISL:1,2009-03-08T13:30:00Z,30.2513,-88.0778,-1.72,15.28,2 
DISL,ioos:station:DISL:DISL:1,2009-03-08T14:00:00Z,30.2513,-88.0778,-1.72,15.11,2 
DISL,ioos:station:DISL:DISL:1,2009-03-08T14:30:00Z,30.2513,-88.0778,-1.72,15.09,2 
DISL,ioos:station:DISL:DISL:1,2009-03-08T15:00:00Z,30.2513,-88.0778,-1.72,15.03,2 
DISL,ioos:station:DISL:DISL:1,2009-03-08T15:30:00Z,30.2513,-88.0778,-1.72,15.25,2 
DISL,ioos:station:DISL:DISL:1,2009-03-08T16:00:00Z,30.2513,-88.0778,-1.72,15.52,2 